Weather History for Valdosta Regional, GA

Change the Weather History Date:

Tuesday, July 23, 2013

  Actual Average Record
Temperature  
Mean Temperature 84 °F 82 °F  
Max Temperature 93 °F 92 °F 98 °F (1999)
Min Temperature 74 °F 71 °F 63 °F (2007)
Cooling Degree Days 19 17  
Month to date cooling degree days 411 374  
Year to date cooling degree days 1526 1218  
Since 1 June cooling degree days 964 806  
Growing Degree Days 34 (Base 50)    
Moisture  
Dew Point 73 °F    
Average Humidity 72    
Maximum Humidity 87    
Minimum Humidity 56    
Precipitation  
Precipitation 0.17 in 0.23 in 1.49 in (1949)
Month to date precipitation 6.75 4.88  
Year to date precipitation 25.08 29.94  
Sea Level Pressure  
Sea Level Pressure 30.00 in    
Wind  
Wind Speed 4 mph (SW)    
Max Wind Speed 12 mph    
Max Gust Speed 18 mph    
Visibility 8 miles    
Events Rain    
T = Trace of Precipitation, MM = Missing Value Source: NWS Daily Summary

Daily Weather History Graph

Daily Weather History Graph

Search for Another Location

Airport:

Trip Planner

Search our weather history database for the weather conditions in past years. The results will help you decide how hot, cold, wet, or windy it might be!

Date:

Astronomy

Jul. 23, 2013 Rise Set
Actual Time 6:45 AM EDT 8:33 PM EDT
Civil Twilight 6:18 AM EDT 9:00 PM EDT
Nautical Twilight 5:46 AM EDT 9:32 PM EDT
Astronomical Twilight 5:12 AM EDT 10:06 PM EDT
Moon 9:11 PM EDT (7/23) 7:44 AM EDT (7/23)
Length of Visible Light 14h 41m
Length of Day
13h 48m
Full, 99% of the Moon is Illuminated
Jul 23
Full
Jul 29
Last Quarter
Aug 6
New
Aug 14
First Quarter
Aug 20
Full

Hourly Weather History & Observations

Time (EDT) Temp. Heat Index Dew Point Humidity Pressure Visibility Wind Dir Wind Speed Gust Speed Precip Events Conditions
12:53 AM 75.9 °F - 69.1 °F 79% 30.05 in 10.0 mi Variable 3.5 mph - N/A   Mostly Cloudy
1:53 AM 77.0 °F - 70.0 °F 79% 30.05 in 10.0 mi Variable 6.9 mph - N/A   Overcast
2:01 AM 77.0 °F - 69.8 °F 78% 30.03 in 10.0 mi SSW 5.8 mph - N/A   Mostly Cloudy
2:41 AM 75.2 °F - 69.8 °F 83% 30.03 in 10.0 mi Calm Calm - N/A   Mostly Cloudy
2:53 AM 75.9 °F - 70.0 °F 82% 30.04 in 10.0 mi Calm Calm - N/A   Overcast
3:24 AM 75.2 °F - 69.8 °F 83% 30.02 in 10.0 mi Calm Calm - N/A   Scattered Clouds
3:53 AM 75.0 °F - 70.0 °F 84% 30.04 in 10.0 mi Calm Calm - N/A   Clear
4:05 AM 75.2 °F - 69.8 °F 83% 30.02 in 10.0 mi Calm Calm - N/A   Partly Cloudy
4:38 AM 75.2 °F - 69.8 °F 83% 30.03 in 10.0 mi Variable 3.5 mph - N/A   Mostly Cloudy
4:53 AM 75.0 °F - 70.0 °F 84% 30.05 in 10.0 mi Variable 3.5 mph - N/A   Mostly Cloudy
5:43 AM 75.2 °F - 71.6 °F 89% 30.03 in 10.0 mi Calm Calm - 0.00 in Rain Light Rain
5:53 AM 75.0 °F - 71.1 °F 87% 30.05 in 10.0 mi Calm Calm - 0.00 in Rain Light Rain
6:39 AM 75.2 °F - 71.6 °F 89% 30.03 in 10.0 mi Calm Calm - 0.00 in   Mostly Cloudy
6:49 AM 75.2 °F - 69.8 °F 83% 30.03 in 10.0 mi Calm Calm - 0.00 in   Overcast
6:53 AM 75.0 °F - 71.1 °F 87% 30.05 in 10.0 mi Variable 3.5 mph - 0.00 in   Overcast
7:48 AM 75.2 °F - 71.6 °F 89% 30.03 in 7.0 mi North - - N/A   Mostly Cloudy
7:53 AM 75.9 °F - 71.1 °F 85% 30.05 in 7.0 mi North - - N/A   Mostly Cloudy
8:00 AM - - - N/A% 30.03 in 7.0 mi North - - N/A   Mostly Cloudy
9:04 AM 80.6 °F 84.6 °F 71.6 °F 74% 30.03 in 7.0 mi Variable 3.5 mph - N/A   Mostly Cloudy
9:53 AM 82.0 °F 87.4 °F 73.0 °F 74% 30.06 in 7.0 mi Variable 5.8 mph - N/A   Mostly Cloudy
10:33 AM 84.2 °F 90.9 °F 73.4 °F 70% 30.03 in 10.0 mi Calm Calm - 0.00 in   Scattered Clouds
10:41 AM 87.8 °F 95.6 °F 73.4 °F 62% 30.03 in 10.0 mi North - - 0.00 in   Mostly Cloudy
10:53 AM 87.1 °F 95.4 °F 73.9 °F 65% 30.05 in - Variable 6.9 mph - 0.00 in   Mostly Cloudy
11:53 AM 87.1 °F 95.4 °F 73.9 °F 65% 30.05 in 10.0 mi North - - N/A   Mostly Cloudy
12:53 PM 89.1 °F 99.1 °F 75.0 °F 63% 30.03 in 10.0 mi WNW 6.9 mph - N/A   Overcast
1:53 PM 90.0 °F 99.0 °F 73.9 °F 59% 30.01 in 10.0 mi WNW 5.8 mph - N/A   Mostly Cloudy
2:53 PM 93.0 °F 105.3 °F 75.9 °F 57% 29.99 in 10.0 mi Variable 4.6 mph - N/A   Mostly Cloudy
3:00 PM 91.4 °F 100.1 °F 73.4 °F 55% 29.97 in 10.0 mi WSW 6.9 mph - N/A   Mostly Cloudy
3:53 PM 84.9 °F 92.1 °F 73.9 °F 69% 29.97 in 10.0 mi Variable 6.9 mph - N/A   Mostly Cloudy
4:53 PM 87.1 °F 95.4 °F 73.9 °F 65% 29.96 in 10.0 mi Variable 6.9 mph - 0.01 in Rain Light Rain
5:15 PM 87.8 °F 95.6 °F 73.4 °F 62% 29.93 in 10.0 mi Variable 5.8 mph - 0.00 in   Mostly Cloudy
5:53 PM 84.0 °F 91.2 °F 73.9 °F 72% 29.96 in 10.0 mi SW 4.6 mph - 0.00 in Rain Light Rain
6:53 PM 80.1 °F 84.5 °F 73.9 °F 81% 29.97 in 5.0 mi Calm Calm - 0.01 in Rain Light Rain
7:21 PM 78.8 °F - 75.2 °F 89% 29.94 in 2.0 mi Calm Calm - 0.07 in Rain Rain
7:32 PM 78.8 °F - 75.2 °F 89% 29.94 in 2.5 mi Calm Calm - 0.09 in Rain Rain
7:41 PM 80.6 °F 86.2 °F 75.2 °F 84% 29.93 in 3.0 mi SSW 3.5 mph - 0.11 in Rain Rain
7:50 PM 80.6 °F 86.2 °F 75.2 °F 84% 29.93 in 2.5 mi Calm Calm - 0.13 in Rain Rain
7:53 PM 80.1 °F 85.1 °F 75.0 °F 85% 29.94 in 2.5 mi Calm Calm - 0.14 in Rain Rain
8:00 PM 80.6 °F 86.2 °F 75.2 °F 84% 29.92 in 4.0 mi Calm Calm - 0.01 in Rain Light Rain
8:53 PM 79.0 °F - 75.0 °F 88% 29.95 in 10.0 mi South 4.6 mph - 0.01 in   Scattered Clouds
9:53 PM 80.1 °F 85.1 °F 75.0 °F 85% 29.95 in 8.0 mi South 5.8 mph - N/A   Partly Cloudy
10:53 PM 79.0 °F - 73.0 °F 82% 29.92 in 10.0 mi Variable 3.5 mph - N/A   Clear
11:53 PM 75.9 °F - 70.0 °F 82% 29.93 in 10.0 mi Variable 5.8 mph - N/A   Unknown